Overview Statistics Trail Chart Weather Telemetry Raw packets
 

This is the latest recevied weather packets stored in our database for station/object 4S6DRJ-13. If no packets are shown the sender has not sent any weather packets the latest 10 day(s).

<< 512 513 514 515 516 517 518 >>
Time Temp. Humidity Pressure Rain* Wind** Luminosity Snow
1787665896 27.78° C 86% 1010.4 hPa 0 mm 1.34 m/s, 146° 0 W/m² -
1787665835 27.78° C 86% 1010.5 hPa 0 mm 0.89 m/s, 256° 0 W/m² -
1787665774 27.78° C 86% 1010.3 hPa 0 mm 0.89 m/s, 202° 0 W/m² -
1787665712 27.78° C 85% 1010.5 hPa 0 mm 0.89 m/s, 253° 0 W/m² -
1787665652 27.78° C 85% 1010.5 hPa 0 mm 2.24 m/s, 285° 0 W/m² -
1787665591 27.78° C 85% 1010.5 hPa 0 mm 0.89 m/s, 252° 0 W/m² -
1787665529 27.78° C 85% 1010.4 hPa 0 mm 1.79 m/s, 238° 0 W/m² -
1787665469 27.78° C 85% 1010.5 hPa 0 mm 1.79 m/s, 180° 0 W/m² -
1787665408 27.78° C 85% 1010.4 hPa 0 mm 1.79 m/s, 208° 0 W/m² -
1787665347 27.78° C 85% 1010.5 hPa 0 mm 0.89 m/s, 240° 0 W/m² -
1787665286 27.78° C 85% 1010.4 hPa 0 mm 0.45 m/s, 283° 0 W/m² -
1787665225 27.78° C 84% 1010.5 hPa 0 mm 0.89 m/s, 200° 0 W/m² -
1787665163 27.78° C 84% 1010.3 hPa 0 mm 1.34 m/s, 234° 0 W/m² -
1787665104 27.78° C 84% 1010.3 hPa 0 mm 0.89 m/s, 236° 0 W/m² -
1787665041 27.78° C 84% 1010.3 hPa 0 mm 0.89 m/s, 272° 0 W/m² -
1787664980 27.78° C 84% 1010.2 hPa 0 mm 0 m/s 0 W/m² -
1787664919 27.78° C 84% 1010.2 hPa 0 mm 0.45 m/s, 301° 0 W/m² -
1787664859 27.78° C 84% 1010.2 hPa 0 mm 0.45 m/s, 202° 0 W/m² -
1787664797 27.78° C 84% 1010.3 hPa 0 mm 0.45 m/s, 230° 0 W/m² -
1787664735 27.78° C 84% 1010.4 hPa 0 mm 0 m/s 0 W/m² -
1787664674 27.78° C 84% 1010.3 hPa 0 mm 0.89 m/s, 219° 0 W/m² -
1787664614 27.78° C 84% 1010.1 hPa 0 mm 1.34 m/s, 64° 0 W/m² -
1787664553 27.78° C 84% 1010.2 hPa 0 mm 1.79 m/s, 245° 0 W/m² -
1787664492 27.78° C 84% 1010.1 hPa 0 mm 0.89 m/s, 195° 0 W/m² -
1787664432 27.78° C 84% 1010.3 hPa 0 mm 0.45 m/s, 276° 0 W/m² -

* Rain latest hour (hover to see other rain measurements)
** Current wind speed in m/s (hover to see current wind gust speed)